{"data":{"norad_id":64508,"intl_designator":"2025-134J","name":"KUIPER-00048","alt_names":[],"object_type":"PAYLOAD","status":"ACTIVE","operator":null,"country":"US","launch_date":"2025-06-23","launch_site_code":"AFETR","launch_vehicle":null,"mission":null,"orbit_class":"UNKNOWN","rcs_meters":null,"size_class":null,"mass_kg":null,"dimensions":null,"purposes":[],"wikipedia_slug":null,"has_3d_model":false,"image_url":null,"decayed_at":null,"tle_current":{"epoch":"2026-05-25T05:28:19.226784Z","epoch_age_seconds":65552,"freshness":"FRESH","line1":"1 64508U 25134J   26145.22800031  .00000450  00000+0  88031-4 0  9994","line2":"2 64508  51.8978 237.1212 0000289 110.4808 249.6186 14.79935115 51650","mean_motion":14.79935115,"eccentricity":2.89e-5,"inclination_deg":51.8978,"raan_deg":237.1212,"arg_perigee_deg":110.4808,"mean_anomaly_deg":249.6186,"bstar":8.8031e-5,"rev_number":5165,"period_min":97.301563116164,"perigee_km":629.32643110601,"apogee_km":629.73147419808,"semimajor_km":7007.665952652,"source":"CELESTRAK","updated_at":"2026-05-25T13:38:04.573324Z"}}}